Location: Unspecified
(43.4680°N, 87.1740°E)
Time: 13:50:28
(UTC+00:00)

Okean 2 - Pass Details

Date: 07 August 2021
Orbit: 558 x 577 km, 82.5° (Epoch: 18 September)

Event Time Altitude Azimuth Distance (km) Brightness Sun altitude
Rises 18:51:48 0° 354° (N) 2,800 8.0 -29.8°
Reaches altitude 10° 18:54:01 10° 357° (N) 1,894 6.9 -29.7°
Enters shadow 18:56:31 34° 8° (N) 950 5.0 -29.7°
